GFSMA_700_rhum_057.txt.gz
RH
49 52 59 55 43 31 25 21 24 25 23 20 19 24 29 33 29 35 36 32 34 39 42 45 45 45 46 47 46 45 39 34 34 33 32 32 29 28 30 32 30 29 28
61 73 67 52 38 26 28 26 31 30 24 20 23 29 38 42 43 44 45 44 41 41 45 46 46 45 46 46 50 52 54 55 55 52 49 42 37 32 35 35 32 30 30
67 67 60 47 31 46 34 31 36 31 27 23 28 36 45 46 44 42 42 43 46 46 47 46 47 46 46 48 52 50 51 63 64 60 58 55 44 38 39 40 36 30 29
78 68 51 38 42 45 31 34 36 30 30 26 27 37 46 46 44 43 40 36 40 43 45 46 46 46 47 55 56 60 70 65 65 66 61 59 58 44 43 45 40 40 34
89 65 44 47 47 32 36 38 36 38 36 32 30 34 38 38 38 36 40 44 43 40 43 46 47 48 57 64 47 44 54 71 73 66 66 60 59 57 50 50 47 48 41
94 61 48 70 44 41 46 50 47 51 42 37 36 36 37 36 34 33 36 40 43 46 52 47 49 52 65 73 56 42 41 51 55 57 52 55 56 62 57 54 53 55 47
93 82 86 86 53 56 66 68 67 62 58 56 41 37 40 42 39 35 36 41 54 68 66 77 88 87 74 56 41 47 39 46 46 43 46 52 58 59 59 56 56 60 56
95 94 93 84 95 86 80 73 72 67 64 66 67 56 46 41 35 34 36 44 72 76 71 70 93 97 79 43 54 69 72 68 51 45 42 44 56 58 54 52 57 62 60
93 91 94 92 97 89 74 75 77 77 72 73 67 78 98 92 95 47 41 48 64 67 81 84 79 78 79 72 64 59 78 75 68 67 54 42 37 44 46 45 45 59 66
94 98 91 89 99 92 66 80 78 77 81 81 65 60 67 82 94 100 95 71 73 82 92 98 99 98 92 73 80 89 67 83 82 81 85 80 57 40 46 43 37 36 41
94 90 98 80 79 70 68 76 78 78 78 88 87 78 72 58 63 63 60 76 81 78 81 94 100 100 98 91 91 92 97 90 100 93 98 82 71 71 49 45 56 60 74
96 99 98 81 70 74 75 77 81 80 81 85 88 80 79 76 68 67 68 70 78 84 75 79 92 98 99 100 97 98 100 97 100 98 99 91 91 86 58 54 73 74 72
88 91 93 82 74 77 80 88 90 94 91 84 87 82 80 84 88 81 73 71 73 78 94 96 98 100 99 99 99 97 97 97 99 98 99 93 99 90 84 54 42 48 48
100 97 88 83 79 78 80 81 92 99 93 92 93 91 83 78 79 79 73 76 67 62 64 67 72 76 87 97 97 96 99 100 100 100 98 94 100 97 79 61 51 44 48
88 97 99 98 91 85 81 85 83 79 83 84 83 83 73 71 70 63 62 70 70 71 64 61 70 80 97 99 97 98 99 99 100 94 96 91 97 99 78 53 51 46 41
57 62 73 81 89 90 88 92 84 76 77 79 76 71 68 66 68 70 73 72 71 72 80 85 93 94 99 99 98 97 91 99 100 93 94 100 95 90 77 57 59 49 52
41 47 50 55 58 58 63 72 68 70 75 74 72 70 67 68 70 74 72 67 68 64 92 95 92 86 90 89 97 99 100 100 97 84 100 100 89 94 78 67 52 47 38
38 39 42 43 43 46 50 55 59 53 52 54 51 59 62 67 76 64 56 54 79 99 97 93 84 88 90 98 99 100 84 81 92 89 77 88 100 85 78 71 60 40 24
35 37 38 38 40 41 42 44 44 48 66 78 71 58 58 67 65 61 73 97 99 94 88 96 100 92 100 93 100 99 100 100 94 100 99 94 80 82 91 63 70 32 25
31 33 37 40 45 48 49 59 58 60 79 80 80 94 95 98 100 77 93 95 99 91 86 96 96 99 99 98 92 99 88 100 100 99 92 76 92 90 73 67 42 26 37
53 53 50 56 57 58 64 73 77 76 68 71 90 98 86 88 96 96 98 86 80 86 100 99 96 100 94 100 100 99 100 100 88 78 99 100 94 80 73 52 32 47 64
57 59 58 59 54 50 60 80 90 95 91 84 94 100 100 100 96 99 98 79 76 91 100 97 97 99 98 100 100 99 80 89 83 100 100 95 90 81 70 46 69 71 79
43 31 34 31 31 31 33 46 69 81 91 92 97 97 100 99 100 96 93 99 93 98 100 96 99 99 100 99 98 62 94 97 98 100 98 93 92 80 62 83 83 78 74
27 33 33 34 36 31 27 36 54 60 64 73 71 83 92 94 98 96 98 100 100 100 96 99 99 97 99 93 84 98 100 100 100 100 98 92 83 83 83 86 86 80 73
32 34 35 37 38 36 38 42 47 56 58 60 64 70 76 83 86 90 100 99 99 99 99 100 100 98 98 80 98 100 100 97 97 100 96 94 88 87 82 82 81 78 72
31 34 33 35 41 42 40 43 52 54 69 68 80 91 98 96 93 94 90 99 96 98 99 98 97 94 98 100 100 100 98 96 96 93 94 92 93 92 80 81 79 80 77

GFSMA_700_rhum_060.txt.gz
RH
98 94 50 59 52 45 33 21 17 17 19 19 18 21 28 19 23 26 27 28 28 28 29 35 39 39 38 38 41 45 47 47 46 44 43 41 38 35 31 28 32 34 31
99 96 48 56 52 44 26 22 23 25 24 21 21 23 31 21 26 34 34 32 33 37 41 42 42 43 43 44 44 46 48 49 52 52 51 51 51 46 39 33 36 38 34
99 82 62 68 52 39 27 24 30 31 26 22 22 25 26 38 32 39 41 44 45 43 43 44 45 44 44 45 48 53 48 50 55 54 58 61 57 56 51 42 40 42 39
97 90 74 68 60 39 29 28 35 34 27 23 24 28 36 41 42 40 43 44 43 44 46 46 44 46 45 47 50 55 45 34 33 59 64 63 62 60 53 53 45 46 45
75 97 87 87 49 73 35 32 38 33 28 26 25 32 36 41 50 44 35 32 37 41 44 42 41 44 46 48 63 61 40 31 36 48 54 51 47 47 51 58 54 51 51
78 100 98 100 86 98 83 36 38 34 34 33 30 29 33 39 40 36 36 33 25 26 35 39 50 54 62 59 68 46 37 36 47 57 47 46 51 54 56 55 56 55 52
76 95 93 72 55 52 34 35 38 38 44 41 39 34 36 41 36 34 33 35 37 40 46 51 58 43 79 84 72 40 47 61 72 64 56 59 54 48 53 53 54 53 50
82 87 90 60 57 46 40 45 76 52 54 53 50 46 41 42 40 37 37 36 37 38 60 73 64 65 75 69 68 51 58 56 62 66 65 69 63 51 44 46 48 48 46
86 93 90 80 84 71 78 90 90 67 62 61 73 69 65 51 52 64 62 47 39 41 49 65 80 75 86 81 80 86 67 64 62 63 56 62 64 53 47 44 38 39 45
92 93 94 85 87 91 86 90 86 72 73 70 70 71 64 61 90 89 80 80 81 64 62 82 81 84 94 96 96 96 97 91 78 77 74 74 71 70 71 63 52 32 29
92 89 93 95 95 98 91 97 86 77 74 76 76 76 65 64 64 72 73 75 74 66 63 70 69 75 82 92 90 98 98 95 91 78 79 83 85 90 88 76 94 91 75
99 97 94 93 92 93 87 82 77 74 78 78 79 80 79 78 74 65 60 60 64 66 76 70 76 77 80 82 84 89 90 89 90 100 81 84 93 99 100 95 100 100 89
99 98 93 91 83 86 81 84 72 73 77 78 81 94 80 77 79 82 82 78 78 78 82 72 65 65 65 68 67 66 68 76 83 98 94 92 83 98 100 100 100 100 89
100 88 87 87 92 89 84 78 75 71 73 74 83 99 92 86 90 85 76 84 74 71 73 69 66 66 68 68 75 82 93 100 98 99 98 98 94 98 100 100 99 99 88
100 96 90 97 99 99 99 75 71 73 74 78 86 99 98 92 97 96 90 76 76 76 72 72 68 62 67 62 70 100 100 99 99 99 92 99 82 100 97 82 100 98 94
90 95 99 98 100 100 94 89 82 80 81 88 96 91 93 87 86 87 85 79 82 79 81 74 70 64 64 80 88 93 100 99 98 99 86 98 99 99 88 98 100 98 100
38 50 62 78 85 86 89 94 89 92 90 89 88 87 80 80 85 83 82 82 82 82 79 71 60 73 92 91 86 94 98 98 99 86 97 94 93 85 94 100 83 97 93
36 36 39 43 46 48 56 57 57 60 68 72 70 79 79 74 72 73 71 73 87 75 70 58 82 85 76 90 99 90 100 100 98 93 99 93 96 66 97 100 100 96 84
31 33 35 35 36 39 41 42 44 47 51 51 52 55 58 74 81 73 72 87 99 98 93 75 90 86 99 86 94 82 100 100 87 80 97 96 96 100 100 99 76 90 90
25 27 29 32 34 36 37 39 43 44 45 47 53 54 58 80 80 81 92 89 93 100 92 92 100 94 88 80 92 93 98 96 99 100 98 92 100 100 91 68 96 95 87
29 28 29 31 34 35 38 43 46 51 56 57 62 64 68 75 81 94 97 94 83 88 96 99 99 80 83 84 94 100 99 96 97 99 95 100 68 65 75 99 100 99 88
52 48 46 47 52 55 56 56 57 59 62 63 75 85 86 82 80 89 98 100 100 99 100 86 99 79 81 89 99 100 98 98 96 97 98 83 74 79 99 100 100 96 86
53 57 62 62 62 59 58 53 48 59 64 65 74 83 89 96 100 100 98 98 100 99 99 98 96 98 93 99 100 99 99 98 98 97 97 83 100 100 100 100 97 94 88
28 25 36 51 50 44 36 36 39 38 38 46 65 65 68 64 85 100 100 100 100 100 98 96 99 100 100 100 96 98 100 96 96 96 97 91 100 97 99 98 94 94 89
31 27 27 40 41 31 33 34 35 36 34 40 48 54 67 70 79 91 100 100 100 100 99 100 100 100 98 99 99 100 96 93 97 99 98 95 95 91 91 88 86 83 80
33 31 30 26 25 28 33 34 35 38 39 46 50 51 61 88 100 100 100 99 100 100 97 97 100 99 100 100 99 97 97 97 96 97 98 95 93 90 81 81 81 86 82

GFSMA_700_rhum_063.txt.gz
RH
92 80 97 93 59 44 37 29 22 19 17 18 18 12 12 17 18 21 21 24 25 27 26 25 27 32 34 36 38 38 42 44 47 47 50 49 48 45 41 37 32 31 34
88 99 94 52 43 46 38 25 20 18 17 20 20 16 13 16 18 22 22 24 27 29 32 36 40 41 42 42 43 44 46 45 46 51 56 58 54 50 48 47 42 36 38
96 98 98 58 56 50 38 24 22 21 20 23 23 17 14 17 22 23 24 32 33 37 42 45 44 45 45 47 45 47 47 41 36 39 49 58 57 56 57 53 50 43 43
98 100 100 78 64 54 34 22 22 26 27 24 22 20 16 20 30 31 32 35 40 43 44 47 47 45 45 46 46 48 57 48 31 27 33 53 60 57 56 60 58 54 48
98 100 100 56 62 56 33 24 26 39 32 24 23 28 23 20 42 43 44 43 42 44 44 45 44 43 45 45 42 52 55 38 28 23 30 42 45 42 41 45 50 57 57
99 100 95 58 67 68 39 26 31 38 31 26 25 27 37 33 37 42 42 42 42 40 41 41 41 57 47 45 71 68 55 31 33 35 32 30 37 37 36 42 48 54 59
100 100 96 75 81 94 56 31 32 39 33 30 29 29 39 44 49 37 24 25 23 25 30 34 45 64 48 43 52 70 51 51 47 42 49 42 39 43 37 36 40 45 45
100 100 97 97 99 98 90 88 42 42 37 38 41 39 37 36 32 34 34 31 31 31 30 32 45 62 64 64 74 69 82 83 70 68 54 50 52 58 61 56 45 42 37
100 99 98 99 99 86 100 95 44 42 48 79 61 53 49 42 37 38 38 39 41 37 32 34 41 56 64 70 70 70 69 70 70 75 76 82 72 68 72 59 72 70 73
99 100 99 100 99 100 80 53 40 44 85 90 68 62 64 64 61 49 48 44 49 52 49 46 45 57 68 69 70 67 71 68 82 85 82 81 75 78 76 79 81 82 70
100 99 96 100 100 90 71 44 45 54 97 88 73 72 68 68 64 56 81 88 84 86 82 77 66 56 58 68 71 60 61 63 66 70 71 73 79 83 78 76 83 90 87
100 99 99 94 98 74 77 57 72 82 95 80 76 75 75 75 72 62 63 60 57 63 66 66 64 66 76 72 67 64 62 64 67 73 84 88 88 89 92 82 94 99 96
99 100 99 96 99 97 72 82 90 90 95 81 77 75 76 78 84 86 82 77 76 71 69 64 70 79 81 80 76 75 74 74 70 79 83 100 99 98 100 99 100 100 100
100 100 100 99 96 98 84 98 98 93 93 93 82 82 81 81 85 93 84 88 93 92 92 86 76 70 70 76 82 81 77 94 98 100 100 99 99 99 99 99 99 96 95
99 100 100 100 100 90 88 92 98 97 92 86 80 82 86 93 88 94 97 94 99 98 94 89 89 75 74 83 78 72 91 87 97 99 100 99 98 98 99 99 97 100 100
74 89 98 94 83 88 88 93 97 92 98 94 84 79 79 81 78 84 100 100 97 97 98 90 82 81 83 79 76 65 100 95 84 87 97 100 100 98 87 93 97 100 100
44 44 58 72 84 89 91 91 96 96 99 99 85 77 78 78 82 91 96 94 93 89 87 80 81 88 87 82 65 92 98 97 95 92 95 94 92 90 97 98 97 99 72
27 27 30 39 43 53 58 67 69 83 88 88 80 88 79 83 84 84 85 79 83 76 81 88 92 97 100 97 87 96 100 96 92 98 91 99 81 87 100 94 96 70 82
34 34 34 34 35 37 42 46 53 54 53 52 51 53 50 62 58 57 57 70 86 86 82 96 98 100 100 100 99 95 100 99 94 100 100 98 95 89 93 99 95 99 100
29 31 32 32 33 36 36 38 39 39 40 41 44 46 46 48 52 55 55 57 82 92 89 93 98 98 96 88 90 99 95 97 87 100 97 99 93 100 99 98 98 99 96
24 24 27 28 29 31 31 32 35 36 40 42 44 48 52 54 56 60 60 67 76 92 95 97 91 100 99 95 97 97 95 84 87 94 98 100 99 99 99 99 99 96 93
40 35 38 37 31 30 31 32 35 37 39 41 46 48 51 57 61 62 68 74 76 82 87 88 96 100 98 100 100 99 99 99 99 100 99 99 99 100 98 97 93 95 99
59 59 58 57 57 56 54 47 39 44 55 60 61 61 64 65 75 84 83 86 88 90 94 95 96 96 99 99 100 99 100 100 100 100 99 99 98 99 95 95 96 95 100
46 47 53 59 62 62 61 69 76 69 76 75 74 66 69 65 66 77 91 98 98 99 99 99 98 100 99 92 98 100 100 99 99 100 97 96 97 97 98 98 98 97 96
44 41 44 51 54 48 48 47 65 78 85 84 75 63 72 80 76 71 86 85 97 100 99 97 99 100 100 91 100 100 100 99 98 98 99 93 95 98 98 97 95 95 96
57 55 44 40 43 40 33 33 46 62 61 59 67 81 74 82 75 93 96 89 90 94 98 100 100 100 100 99 98 100 98 97 97 97 98 100 98 97 95 94 94 97 96

GFSMA_700_rhum_069.txt.gz
RH
95 97 92 41 52 41 34 35 31 32 30 31 30 19 13 11 13 15 16 16 15 14 14 14 16 18 22 27 31 32 34 36 39 41 42 44 46 49 48 46 45 42 40
88 98 90 48 34 45 48 48 34 29 30 33 26 16 14 13 16 18 18 18 18 18 18 19 20 23 29 35 36 38 38 36 38 40 39 39 43 46 50 52 52 51 50
98 99 59 66 52 31 36 48 39 34 32 48 44 17 16 15 19 22 21 23 27 28 26 23 25 34 40 41 40 40 37 35 38 41 40 37 31 31 50 60 60 58 59
100 98 58 34 36 60 57 50 47 36 29 29 21 16 17 14 18 22 22 24 28 31 31 35 40 44 44 43 41 40 39 38 38 43 40 22 24 34 42 44 43 47 50
99 100 87 46 48 54 47 49 43 33 24 20 20 24 19 19 18 23 25 28 32 39 44 44 44 45 44 41 38 36 40 46 51 40 28 37 43 44 38 33 32 29 29
100 100 86 79 79 89 96 93 50 32 22 19 21 30 25 23 23 27 29 31 35 44 48 48 46 44 40 36 35 39 44 60 36 41 44 57 66 60 59 62 60 56 53
100 100 97 97 99 82 92 82 50 28 22 22 24 28 28 28 32 39 35 37 42 51 52 49 43 38 36 35 46 44 55 58 73 70 67 71 74 78 84 84 88 88 81
98 99 100 99 95 67 62 61 46 28 27 25 26 30 29 32 42 45 48 48 53 52 50 46 41 36 33 34 58 61 72 73 72 72 72 70 74 74 82 84 84 81 88
99 99 98 100 99 98 94 78 52 30 30 31 32 34 37 29 38 56 51 52 52 47 42 37 33 32 31 36 54 64 71 71 73 69 72 67 68 66 65 67 70 74 78
98 100 100 99 99 100 99 96 62 36 38 42 38 44 40 61 56 47 46 45 44 39 34 32 32 33 33 33 37 51 68 70 68 69 62 64 67 72 76 79 83 84 85
99 98 100 100 100 98 100 100 97 56 43 39 55 61 67 57 90 84 93 53 41 36 36 37 39 42 42 37 39 50 63 60 72 70 72 74 76 79 75 79 94 99 95
99 100 100 100 100 99 99 99 98 85 61 53 57 66 66 90 79 98 68 66 67 63 60 76 68 62 88 75 71 63 58 74 80 79 75 77 80 84 76 83 95 100 99
96 98 100 98 99 100 100 99 99 99 97 93 68 58 78 96 98 89 77 76 75 75 70 66 68 70 59 56 55 58 71 81 87 85 81 78 81 87 76 80 76 88 100
100 100 100 100 100 100 100 100 98 99 100 100 92 70 80 93 85 83 78 80 81 82 83 75 68 69 70 72 75 80 86 86 85 87 93 85 78 83 81 79 77 78 75
99 100 99 99 99 100 100 100 99 100 100 100 99 92 88 77 89 88 94 88 87 85 79 81 85 80 80 80 78 83 89 92 94 94 90 89 86 85 83 76 82 87 86
95 92 98 93 97 100 100 100 100 100 100 100 99 77 71 73 85 93 97 96 95 94 95 88 82 78 82 89 98 100 99 99 97 93 91 90 95 98 88 75 80 81 87
93 95 100 97 98 97 97 99 97 96 98 97 95 87 74 77 82 94 93 94 95 96 97 85 85 82 82 85 88 92 96 98 94 92 88 94 92 98 100 99 94 93 98
63 79 99 100 99 99 100 98 98 98 100 99 99 98 91 90 86 92 92 98 98 99 100 98 89 86 86 86 88 89 90 88 90 85 84 99 95 98 100 100 99 99 100
50 61 64 66 70 82 97 99 100 99 99 99 100 96 92 91 96 100 100 98 98 99 99 99 97 100 93 81 75 72 72 82 86 91 97 87 98 99 90 98 94 96 99
34 39 47 52 59 63 60 63 72 72 75 76 81 74 78 83 78 82 88 92 95 100 100 100 100 96 86 76 68 65 67 70 73 88 90 83 82 98 96 98 99 100 99
29 29 30 33 36 40 41 44 47 45 44 46 49 49 50 56 58 61 72 66 73 83 91 87 74 64 60 62 62 66 69 70 71 74 79 84 88 99 98 98 98 100 99
58 57 46 34 32 30 29 32 36 38 42 44 41 39 39 41 42 44 51 54 62 63 62 67 62 61 58 58 62 64 68 73 71 73 81 81 98 82 82 86 100 92 98
64 58 56 59 52 49 45 39 36 37 35 36 38 38 38 38 38 39 41 45 53 63 65 63 56 54 54 59 62 66 71 77 77 88 95 81 83 92 99 78 84 99 90
56 57 58 59 59 60 57 58 58 64 68 65 58 48 41 39 38 38 39 40 43 48 49 56 62 63 65 63 68 79 84 96 97 86 100 87 93 99 100 92 94 99 99
23 26 28 31 38 48 54 61 66 67 65 63 65 71 68 64 64 66 59 52 50 48 51 57 66 76 93 98 100 100 97 100 98 100 96 100 99 100 99 98 98 99 98
20 19 24 26 24 24 27 35 44 55 60 63 61 69 66 66 72 72 88 84 81 84 90 98 90 96 99 100 97 99 98 100 89 99 99 100 100 99 98 99 97 96 97